TIME,DELAY(SENSOR),PRES,T(CTD),SAL,OXYGEN,RAWTEMP,T(OPTODE),TCPHASE,FLUOR,BETA(BETA700),BETA(BETA412),BETA(BETA440),CDOM,C(CSC),ED(ED411.90),ED(ED443.80),ED(ED489.40),ED(ED554.70),LU(LU412.20),LU(LU443.80),LU(LU489.40),LU(LU555.00),COMP,TILTX,TILTX(TILTY),CHECK
1339082591,5805,496.8299865722656000,15.6325998306274410,36.1133003234863300,212.5639953613281200,247.5975952148437500,15.6344203948974610,33.7467498779296900,50,109,100,81,70,15432,2147476425,2147773028,2147565833,2147802304,2147313920,2147476269,2147722514,2148243382,744,7,13,35240
1339082704,5804,486.4400024414062500,15.8002004623413090,36.1441001892089840,214.6446990966797000,242.2216949462890600,15.7978696823120120,33.5553398132324200,50,108,101,79,70,15430,2147476534,2147773193,2147563556,2147799414,2147314816,2147471369,2147721216,2148245449,1336,7,13,34256
1339082829,5800,474.7200012207031000,15.9402999877929690,36.1693000793457000,216.5603027343750000,237.3838043212890600,15.9449596405029300,33.3821907043457000,50,107,100,79,69,15428,2147476269,2147772726,2147562048,2147802532,2147314624,2147475072,2147722258,2148244096,1613,7,13,20606
1339082940,5804,464.3800048828125000,16.1203994750976560,36.2039985656738300,217.8710021972656200,231.2584075927734400,16.1312007904052730,33.2246208190918000,50,107,101,80,69,15430,2147478080,2147772635,2147564041,2147801810,2147317101,2147477129,2147719158,2148236388,2170,7,13,40308
1339083066,5805,452.9500122070312500,16.3027000427246100,36.2398986816406250,220.0527954101562500,225.7290954589843800,16.2992992401123050,33.0303382873535160,50,109,100,80,68,15430,2147477238,2147772973,2147561682,2147799414,2147314843,2147470564,2147719899,2148236891,2243,7,13,61986
1339083190,5802,441.8399963378906000,16.4676990509033200,36.2714996337890600,222.5484008789062500,220.1013031005859400,16.4704208374023440,32.8207206726074200,50,108,101,80,68,15430,2147477787,2147769216,2147559232,2147799872,2147314386,2147472594,2147716379,2148244708,2108,7,13,26546
1339083316,5805,430.5499877929687500,16.5890998840332030,36.2974014282226560,225.4936065673828000,216.1213989257812500,16.5914192199707030,32.6128501892089840,50,109,102,81,68,15427,2147482157,2147768914,2147560402,2147798043,2147315026,2147471908,2147715675,2148238948,2631,6,13,7966
1339083441,5804,419.5400085449219000,16.7007999420166000,36.3191986083984400,227.0415954589843800,212.6618957519531200,16.6966209411621100,32.4858703613281250,50,110,99,80,68,15431,2147480813,2147766966,2147559808,2147798116,2147310976,2147474084,2147717001,2148241060,2576,7,13,3225
1339083578,5803,407.7099914550781000,16.8185997009277340,36.3433990478515600,227.8762054443359400,208.6065063476562500,16.8199405670166000,32.3875198364257800,50,108,101,79,68,15430,2147482733,2147767533,2147558592,2147797019,2147313280,2147472612,2147714724,2148249526,2485,8,13,36144
1339083718,5805,395.9800109863281000,16.9332008361816400,36.3644981384277340,229.2541961669922000,205.0574035644531200,16.9278697967529300,32.2691688537597660,50,109,101,80,69,15429,2147482377,2147766930,2147559506,2147796534,2147315264,2147475885,2147712539,2148244836,86,7,12,51828
1339083842,5805,385.7999877929687500,17.0130004882812500,36.3814010620117200,230.0529937744140600,202.2033996582031200,17.0146694183349600,32.1899414062500000,50,110,101,79,68,15430,2147486336,2147765394,2147562331,2147796763,2147315556,2147476754,2147716160,2148240923,505,7,13,55405
1339083981,5804,374.4899902343750000,17.1569995880126950,36.4094009399414060,232.2122955322265600,197.5151977539062500,17.1572704315185550,32.0186996459960940,50,109,101,80,68,15429,2147483474,2147765476,2147559040,2147795840,2147316928,2147480137,2147714057,2148247442,982,7,13,26162
1339084119,5805,363.3599853515625000,17.2672004699707030,36.4309997558593750,234.4889068603515600,194.0135955810547000,17.2637805938720700,31.8594398498535160,50,109,100,79,67,15432,2147484946,2147768585,2147561133,2147796132,2147315154,2147474788,2147713371,2148241910,2029,7,13,38588
1339084258,5805,351.9700012207031000,17.3297004699707030,36.4438018798828100,235.5856018066406200,191.8343963623047000,17.3300800323486330,31.7764701843261720,50,109,101,80,67,15431,2147483382,2147765458,2147560118,2147795483,2147312548,2147480393,2147711424,2148243748,2812,7,13,31123
1339084382,5804,341.5899963378906000,17.4172000885009770,36.4607009887695300,236.0249023437500000,188.8267059326172000,17.4215908050537100,31.7145195007324220,50,110,100,80,68,15428,2147486966,2147767625,2147561408,2147799616,2147315529,2147479305,2147713142,2148244873,9,7,13,44822
1339084519,5804,329.8900146484375000,17.5128993988037100,36.4770011901855500,237.4393005371093800,185.7530059814453000,17.5151100158691400,31.6049995422363280,50,112,101,80,67,15425,2147484498,2147765906,2147561462,2147797668,2147316571,2147475620,2147710125,2148247478,338,7,13,1721
1339084646,5804,318.6499938964844000,17.5727996826171880,36.4850997924804700,238.0243072509765600,184.0019073486328000,17.5683994293212900,31.5534992218017580,50,114,102,80,67,15420,2147485430,2147768704,2147564297,2147795803,2147315492,2147477714,2147716443,2148244818,782,7,12,25866
1339084771,5802,307.2900085449219000,17.6184997558593750,36.4902000427246100,237.3132019042968800,182.5364990234375000,17.6130008697509770,31.5673408508300780,50,112,100,81,66,15414,2147486482,2147768009,2147567323,2147793691,2147316233,2147476909,2147720731,2148239670,1037,7,13,31860
1339084897,5803,295.6000061035156000,17.6515007019042970,36.4942016601562500,236.4494018554687500,181.2971954345703000,17.6507091522216800,31.5918998718261720,50,112,101,81,66,15417,2147488100,2147771035,2147571364,2147793700,2147315282,2147480466,2147719104,2148241645,838,7,13,1701
1339085008,5803,285.2200012207031000,17.7000007629394530,36.5009002685546900,235.6311035156250000,179.7565002441406200,17.6976108551025400,31.6104602813720700,50,114,102,82,67,15417,2147487661,2147773650,2147575661,2147792429,2147319378,2147475273,2147722925,2148240777,1227,7,13,42406
1339085132,5805,273.8500061035156000,17.7577991485595700,36.5065002441406250,235.2559051513672000,177.9019012451172000,17.7540607452392580,31.6035194396972660,50,116,102,82,66,15414,2147485705,2147775067,2147579840,2147792365,2147318902,2147481243,2147726098,2148241929,1493,7,13,44527
1339085259,5802,262.7799987792969000,17.8274002075195300,36.5150985717773440,234.5511016845703000,175.5926971435547000,17.8243503570556640,31.6060295104980470,50,115,101,82,67,15410,2147486418,2147774738,2147588800,2147794002,2147317824,2147484708,2147728694,2148237540,2748,7,13,60909
1339085397,5803,251.6999969482422000,17.8987007141113280,36.5206985473632800,233.7711944580078000,173.3412933349609400,17.8928909301757800,31.6134605407714840,50,116,102,82,67,15409,2147488411,2147780196,2147597705,2147796004,2147320649,2147487168,2147737270,2148241216,2751,7,13,51563
1339085549,5804,240.5599975585937500,18.0123996734619140,36.5385017395019500,234.1217041015625000,169.5455932617187500,18.0084705352783200,31.5453891754150400,50,116,103,83,67,15404,2147487067,2147788434,2147610112,2147791433,2147315657,2147487158,2147741065,2148243456,2730,7,13,63636
1339085712,5807,230.2500000000000000,18.1298999786376950,36.5488014221191400,232.8843994140625000,165.7124938964843800,18.1252002716064450,31.5536193847656250,51,116,103,83,67,15406,2147487689,2147785837,2147620150,2147793133,2147311350,2147493705,2147745993,2148243419,46,7,13,19839
1339085891,5803,218.1300048828125000,18.3400993347167970,36.5508003234863300,231.1678009033203000,158.6750030517578000,18.3395900726318360,31.5423603057861330,50,119,104,82,67,15402,2147495378,2147801828,2147647360,2147790966,2147314907,2147503222,2147765348,2148241682,953,8,12,4463
1339086041,5802,207.6900024414062500,18.7957000732421880,36.5713005065918000,236.1804962158203000,143.9839935302734400,18.7874298095703120,31.1046791076660160,50,118,104,83,66,15406,2147499510,2147820726,2147690907,2147790555,2147318372,2147515620,2147788452,2148244379,3487,6,13,46954
1339086199,5804,198.0599975585937500,19.2073001861572270,36.6016006469726560,247.4440002441406200,130.3087005615234400,19.2047405242919920,30.4050903320312500,50,119,103,83,64,15406,2147507803,2147886592,2147840960,2147790518,2147323492,2147562514,2147874944,2148249490,37,7,12,33592
1339086258,5801,194.3099975585937500,19.2730998992919920,36.6058006286621100,251.6697998046875000,128.0177001953125000,19.2746906280517580,30.1881904602050780,50,119,102,82,64,15406,2147516525,2147925129,2147926500,2147790482,2147317129,2147588068,2147931062,2148249801,353,8,12,61678
1339086317,5804,190.3000030517578000,19.3215999603271500,36.6073989868164060,254.9407043457031200,126.5684967041015600,19.3189506530761720,30.0270004272460940,51,119,103,84,65,15404,2147520466,2147940480,2147956909,2147790756,2147325814,2147603117,2147951177,2148250788,684,7,13,608
1339086376,5800,186.0599975585937500,19.3449001312255860,36.6095008850097660,257.6415100097656000,125.7934036254882800,19.3426303863525400,29.9010295867919920,50,118,103,82,64,15405,2147529033,2147976018,2148030628,2147793197,2147329837,2147632832,2147999872,2148253147,939,7,13,8456
1339086458,5803,180.1600036621093800,19.3708000183105470,36.6080017089843750,260.1726989746094000,124.9946975708007800,19.3670196533203120,29.7837200164794920,53,118,102,81,63,15405,2147533650,2147978797,2148019638,2147791597,2147331684,2147637385,2147993280,2148251748,1231,7,13,36174
1339086518,5804,176.1900024414062500,19.3763999938964840,36.6066017150878900,261.2867126464844000,124.8037033081054700,19.3728599548339840,29.7344303131103500,53,119,104,82,63,15405,2147545115,2148052745,2148178715,2147793801,2147336438,2147687570,2148096228,2148260361,1343,7,13,60309
1339086577,5803,172.2299957275390600,19.3770999908447270,36.6063003540039060,261.9801940917969000,124.7369003295898400,19.3749008178710940,29.7045192718505860,55,118,102,82,63,15402,2147554404,2148059931,2148190738,2147791954,2147337910,2147693238,2148099337,2148257188,1528,7,12,20855
1339086636,5801,168.2200012207031200,19.3784999847412100,36.6048011779785160,262.2153930664062500,124.7017974853515600,19.3759708404541000,29.6944103240966800,56,120,102,84,63,15396,2147569042,2148141458,2148361197,2147790189,2147353014,2147748745,2148205696,2148268498,1892,7,12,4995
1339086695,5800,164.2400054931640600,19.3773002624511720,36.6036987304687500,262.4768981933594000,124.7273025512695300,19.3751907348632800,29.6836891174316400,57,119,104,82,62,15401,2147587483,2148221046,2148522075,2147792960,2147358464,2147808466,2148305856,2148272749,2145,7,13,27877
1339086778,5804,159.3500061035156200,19.3773994445800780,36.6010017395019500,262.6213073730469000,124.7269973754882800,19.3752002716064450,29.6776695251464840,59,119,103,82,62,15401,2147609307,2148292699,2148652352,2147794166,2147375753,2147855652,2148392722,2148273682,2402,7,13,10607
1339086864,5803,155.6399993896484400,19.3752002716064450,36.5997009277343750,262.7448120117187500,124.7907028198242200,19.3732490539550780,29.6734695434570300,59,122,102,83,62,15395,2147628041,2148338304,2148737325,2147794514,2147381174,2147886354,2148442861,2148281225,2609,7,13,65168
1339086962,5801,151.8699951171875000,19.3763008117675780,36.5978012084960940,262.8304138183594000,124.7830963134765600,19.3734798431396500,29.6696891784667970,63,123,102,84,64,15396,2147666166,2148445312,2148940644,2147797220,2147401636,2147968246,2148569115,2148288146,2742,7,12,53832
1339087075,5805,148.0700073242187500,19.3759002685546880,36.5974006652832000,262.8987121582031000,124.7864990234375000,19.3733806610107420,29.6669807434082030,66,126,104,85,64,15387,2147671926,2148437833,2148881718,2147794971,2147404132,2147957248,2148524169,2148286381,2390,7,13,11898
1339087212,5801,143.8300018310547000,19.3792991638183600,36.5965003967285160,262.9849853515625000,124.7011032104492200,19.3759899139404300,29.6623497009277340,71,127,105,84,63,15372,2147702153,2148503789,2148989970,2147794057,2147427757,2147996233,2148589156,2148288621,2849,7,13,51730
1339087336,5801,140.1000061035156200,19.3806991577148440,36.5965003967285160,262.8955078125000000,124.6411972045898400,19.3778190612792970,29.6650791168212900,75,124,104,84,64,15375,2147704045,2148482550,2148941129,2147796635,2147416740,2147977216,2148542052,2148290779,3226,7,12,8217
1339087455,5803,135.5599975585937500,19.3819007873535160,36.5960998535156250,263.0606079101562500,124.5842971801757800,19.3795604705810550,29.6576995849609380,79,129,106,84,63,15369,2147706377,2148442121,2148834642,2147794102,2147414180,2147935259,2148472950,2148282468,3257,7,12,32280
1339087540,5803,131.5500030517578000,19.3871994018554700,36.5960998535156250,263.1597900390625000,124.4402008056640600,19.3839607238769530,29.6517791748046880,84,129,103,85,62,15363,2147802514,2148722861,2149356562,2147799616,2147466834,2148104822,2148757001,2148301321,3362,7,12,51037
1339087625,5806,127.5599975585937500,19.3938007354736330,36.5976982116699200,263.2297058105469000,124.1950988769531200,19.3914508819580080,29.6455001831054700,90,134,105,85,64,15349,2147785179,2148620004,2149137133,2147801910,2147450340,2148021312,2148610203,2148294482,53,7,12,47629
1339087712,5805,123.4100036621093800,19.4002990722656250,36.5960998535156250,263.7189941406250000,124.0093002319336000,19.3971195220947270,29.6230106353759770,102,130,104,85,64,15346,2147852544,2148759396,2149345563,2147804196,2147478683,2148073444,2148695003,2148303232,524,7,13,41207
1339087797,5805,119.2300033569336000,19.4058990478515620,36.5950012207031250,263.9679870605469000,123.8136978149414000,19.4030990600585940,29.6101894378662100,112,137,105,84,63,15336,2147934646,2148929325,2149623296,2147810998,2147513883,2148144704,2148803830,2148308690,784,7,12,26100
1339087870,5802,115.5599975585937500,19.4111003875732420,36.5946998596191400,264.3904113769531000,123.6345977783203100,19.4085693359375000,29.5902404785156250,119,139,104,83,63,15330,2147870884,2148715483,2149192027,2147804379,2147479387,2147995712,2148540918,2148296603,1054,7,12,16403
1339087955,5804,111.3099975585937500,19.4270992279052730,36.5959014892578100,265.1270141601562500,123.1555023193359400,19.4232101440429700,29.5537796020507800,123,138,104,85,65,15321,2147926701,2148783350,2149248484,2147808228,2147491072,2148000758,2148531602,2148296950,1137,7,13,14581
1339088030,5802,107.5899963378906200,19.4388999938964840,36.5956993103027340,266.5712890625000000,122.7457962036132800,19.4357204437255860,29.4894294738769530,135,138,105,85,65,15305,2148139776,2149249270,2149948864,2147820928,2147574555,2148199808,2148831725,2148321901,1127,7,13,12096
1339088115,5801,103.5299987792968800,19.4740009307861330,36.5974006652832000,268.7063903808594000,121.6447982788086000,19.4693603515625000,29.3884201049804700,127,138,106,83,64,15300,2148715446,2150468681,2151762944,2147847881,2147796233,2148701851,2149611510,2148391936,1212,7,13,62590
1339088200,5804,99.5999984741211000,19.4913005828857420,36.5984992980957000,271.1465148925781000,121.0317001342773400,19.4880905151367200,29.2823390960693360,124,137,106,84,65,15286,2149889243,2152879241,2155296420,2147916059,2148229696,2149679625,2151078427,2148530322,867,7,13,46097
1339088260,5803,96.8700027465820300,19.5018997192382800,36.5983009338378900,272.2438049316406000,120.6343994140625000,19.5002307891845700,29.2333698272705080,123,142,105,85,64,15273,2151088393,2155303076,2158760667,2147990820,2148693878,2150660699,2152516425,2148663305,874,7,13,46692
1339088322,5803,94.0199966430664000,19.5205001831054700,36.5979995727539060,273.3658142089844000,120.0659027099609400,19.5176105499267580,29.1816902160644530,115,137,106,85,64,15267,2152048905,2157088886,2161063817,2148050194,2149056274,2151352566,2153476827,2148765504,907,7,13,53563
1339088381,5803,91.2900009155273400,19.5398006439209000,36.5969009399414060,274.1737060546875000,119.5152969360351600,19.5344295501709000,29.1426200866699220,111,142,111,86,64,15262,2152014125,2156691913,2160012342,2148040256,2149044461,2151195108,2153052708,2148734162,844,7,13,4804
1339088440,5806,88.4000015258789000,19.5813999176025400,36.5954017639160160,275.2392883300781000,118.5776977539062500,19.5630893707275400,29.0888595581054700,99,141,108,86,63,15254,2152015890,2156395510,2159184347,2148036397,2149075382,2151118162,2152777481,2148717266,899,7,12,21682
1339088499,5802,85.6100006103515600,19.6135005950927730,36.5952987670898440,276.3411865234375000,117.2076034545898400,19.6049709320068360,29.0282192230224600,96,144,109,86,63,15248,2151787995,2155632320,2157782720,2148019291,2149029293,2150894016,2152282203,2148671689,965,7,13,45316
1339088559,5804,82.9300003051757800,19.6254997253417970,36.5962982177734400,277.5945129394531000,116.6641006469726600,19.6215801239013670,28.9723300933837900,95,147,110,88,63,15225,2152372086,2156405732,2158481600,2148056009,2149304548,2151332370,2152727424,2148710208,1063,7,13,58305
1339088618,5805,80.3399963378906200,19.6322994232177730,36.5951995849609400,278.4854125976562500,116.3618011474609400,19.6308193206787100,28.9340591430664060,98,148,109,89,63,15215,2153954267,2158816914,2161203172,2148159442,2150008640,2152513773,2154100982,2148844900,1196,7,13,53946
1339088680,5804,77.7600021362304700,19.6550006866455080,36.5952987670898440,279.0130004882812500,115.6712036132812500,19.6519298553466800,28.9048004150390620,93,149,110,89,61,15206,2156013357,2161835940,2164459410,2148288704,2150909394,2153997065,2155784155,2149009728,1202,7,13,63290
1339088739,5803,75.5500030517578100,19.6851005554199220,36.5952987670898440,279.5042114257812500,114.7328033447265600,19.6806201934814450,28.8740806579589840,93,151,109,87,62,15204,2158121499,2164708937,2167343250,2148413110,2151850514,2155459044,2157318418,2149168137,1052,7,13,19224
1339088798,5804,73.5899963378906200,19.7318000793457030,36.5957984924316400,280.1213989257812500,113.1834030151367200,19.7280006408691400,28.8307800292968750,89,150,111,89,63,15206,2160707364,2168217133,2170923958,2148577856,2153034806,2157274294,2159235282,2149356845,687,7,13,50727
1339088858,5806,71.7300033569336000,19.7422008514404300,36.5959014892578100,280.8776855468750000,112.8061981201171900,19.7395305633544920,28.7968502044677730,90,148,114,88,62,15201,2163310253,2171609865,2174306413,2148763858,2154249709,2159079908,2161077065,2149547483,266,7,13,66
1339088917,5805,69.8300018310546900,19.7642002105712900,36.5955009460449200,281.2738952636719000,112.2306976318359400,19.7571296691894530,28.7745895385742200,86,151,110,88,62,15191,2165659291,2174482642,2176981220,2148932251,2155388891,2160674166,2162612708,2149712429,144,7,12,5073
1339088976,5806,67.9000015258789000,19.8103008270263670,36.5942001342773440,281.3796081542969000,110.3855972290039000,19.8135604858398440,28.7472000122070300,84,147,110,89,61,15194,2168553920,2177997888,2180314834,2149148425,2156784073,2162624384,2164478107,2149922953,519,7,13,36397
1339089059,5801,64.7699966430664000,19.9930992126464840,36.5959014892578100,281.5846862792969000,104.6824035644531200,19.9880599975585940,28.6679897308349600,78,148,110,88,62,15190,2174522358,2185045988,2186927515,2149624027,2159930578,2166830884,2168404854,2150358921,844,6,13,9979
1339089118,5803,62.2299995422363300,20.2574996948242200,36.5984992980957000,281.2161865234375000,96.3601531982421900,20.2428703308105470,28.5778999328613280,76,146,110,88,59,15186,2180341888,2191809910,2193387483,2150135817,2163183341,2171042395,2172281865,2150802496,723,7,13,25763
1339089178,5803,59.9300003051757800,20.4051990509033200,36.6024017333984400,280.9397888183594000,91.6651382446289000,20.3867301940917970,28.5297603607177730,75,149,112,88,60,15187,2186983113,2199606665,2201005476,2150811483,2167135542,2176093750,2176995712,2151352576,558,7,12,26111
1339089237,5802,57.6599998474121100,20.5492000579834000,36.6026000976562500,280.1115112304687500,86.9740371704101600,20.5305404663085940,28.5029506683349600,75,148,111,89,60,15176,2191279058,2204073426,2205068553,2151323062,2170210724,2179755017,2179948900,2151714678,335,7,13,14373
1339089296,5804,55.7200012207031250,20.6979007720947270,36.6008987426757800,278.7477111816406000,82.0586318969726600,20.6813201904296880,28.4940109252929700,70,144,110,88,59,15187,2197270244,2210935533,2211812864,2152017051,2174294985,2184803565,2184421193,2152264393,406,7,13,60574
1339089466,5804,50.9199981689453100,20.9195995330810550,36.5882987976074200,276.4431152343750000,73.9341430664062500,20.9307308197021500,28.4817409515380860,68,144,109,88,60,15176,2225801115,2243414418,2244264466,2155822427,2194363291,2209085001,2205732928,2154906084,266,8,12,60000
1339089504,5803,49.4900016784668000,21.0240001678466800,36.5797996520996100,275.5956115722656000,71.1284713745117200,21.0169200897216800,28.4797992706298830,66,143,109,88,57,15200,2234609974,2253341924,2254310025,2157311579,2201230418,2217035776,2212572653,2155833334,346,8,12,63396
1339089555,5803,47.6699981689453100,21.1077995300292970,36.5705986022949200,275.0441894531250000,68.8143463134765600,21.0880298614501950,28.4725494384765620,66,142,109,86,58,15205,2243866230,2263398784,2264563638,2159055634,2209710710,2226783277,2220674651,2156938752,661,7,13,53771
1339089604,5803,45.7999992370605500,21.1495990753173830,36.5663986206054700,274.4414062500000000,66.9575500488281200,21.1451091766357420,28.4728298187255860,65,141,108,88,62,15207,2255051602,2275782674,2277775369,2161692726,2219833490,2238255113,2230587922,2158380361,893,7,13,5744
1339089655,5804,43.7900009155273440,21.1697998046875000,36.5614013671875000,273.9433898925781000,66.0629730224609400,21.1726093292236330,28.4811992645263670,61,139,108,90,61,15215,2246126646,2263307154,2264038665,2160796224,2216541092,2232503954,2223779154,2157630244,984,7,13,65373
1339089715,5804,41.1599998474121100,21.1893005371093750,36.5607986450195300,273.6968078613281000,65.2950668334961000,21.1962203979492200,28.4811191558837900,61,143,110,88,58,15215,2272096594,2292733366,2295667154,2167540205,2238249270,2256834386,2244868672,2161035200,880,7,13,35007
1339089752,5804,38.9799995422363300,21.2141990661621100,36.5574989318847660,273.4989013671875000,64.4836120605468800,21.2211799621582030,28.4789390563964840,60,142,109,87,58,15216,2286229897,2308425782,2312953179,2172032731,2252991451,2273051200,2258683520,2163390381,846,7,13,20851
1339089789,5804,36.7099990844726560,21.2458992004394530,36.5544013977050800,273.1213073730469000,63.3183898925781250,21.2570095062255860,28.4792804718017580,59,140,107,89,59,15210,2276585764,2294629494,2297771611,2171688795,2249591451,2266699986,2251122313,2162663698,837,7,13,15906
1339089827,5802,34.6599998474121100,21.2712001800537100,36.5541000366210940,273.0425109863281000,62.6937789916992200,21.2762203216552730,28.4745807647705080,58,139,109,86,59,15221,2252630802,2264796333,2265439140,2167191149,2233470125,2245816374,2230972324,2159900580,879,8,13,7400
1339089877,5802,32.2200012207031250,21.2992992401123050,36.5541992187500000,272.7741088867187500,61.4923706054687500,21.3131809234619140,28.4702091217041000,59,139,109,87,58,15230,2254718043,2265520228,2266262646,2169556982,2238368274,2249323072,2232877211,2160696576,857,7,13,40174
1339089914,5801,30.7099990844726560,21.3311996459960940,36.5544013977050800,272.7785949707031000,60.5138092041015600,21.3432903289794920,28.4577808380126950,58,137,107,88,58,15221,2254501037,2263993828,2264524964,2170432036,2240472557,2250494336,2232980443,2160934034,955,7,12,30542
1339089977,5804,28.5900001525878900,21.5926990509033200,36.5485992431640600,270.7556152343750000,49.2354011535644500,21.6905994415283200,28.3976001739501950,57,139,108,87,61,15211,2260610029,2269250432,2269970441,2173598500,2249193718,2258685586,2238716160,2162229147,1128,8,12,57377
1339090352,5803,26.8400001525878900,22.3379001617431640,36.5239982604980500,264.0205078125000000,28.2366008758544920,22.3388195037841800,28.4069099426269530,60,139,107,89,63,15200,2310435949,2323688859,2327791899,2190855515,2294548150,2307317193,2280755355,2170034240,2684,8,13,65438
